Change the Weather History Date:

Saturday, November 17, 2012

  Actual Average Record
Temperature  
Mean Temperature 47 °F -  
Max Temperature 57 °F 40 °F 69 °F (2001)
Min Temperature 37 °F 25 °F 3 °F (2005)
Degree Days  
Heating Degree Days 18    
Moisture  
Dew Point 34 °F    
Average Humidity 64    
Maximum Humidity 81    
Minimum Humidity 44    
Precipitation  
Precipitation 0.00 in - - ()
Sea Level Pressure  
Sea Level Pressure 30.31 in    
Wind  
Wind Speed 8 mph (SE)    
Max Wind Speed 16 mph    
Max Gust Speed 21 mph    
Visibility 9 miles    
Events      
Averages and records for this station are not official NWS values.
T = Trace of Precipitation, MM = Missing Value Source: NWS Daily Summary

Daily Weather History Graph

Daily Weather History Graph

Search for Another Location

Airport or City:

Trip Planner

Search our weather history database for the weather conditions in past years. The results will help you decide how hot, cold, wet, or windy it might be!

Date:

Astronomy

Nov. 17, 2012 Rise Set
Actual Time 7:09 AM CST 4:39 PM CST
Civil Twilight 6:38 AM CST 5:11 PM CST
Nautical Twilight 6:02 AM CST 5:47 PM CST
Astronomical Twilight 5:28 AM CST 6:21 PM CST
Moon 10:55 AM CST (11/17) 8:50 PM CST (11/17)
Length of Visible Light 10h 33m
Length of Day
9h 29m
Waxing Crescent, 20% of the Moon is Illuminated
Nov 17
Waxing Crescent
Nov 20
First Quarter
Nov 28
Full
Dec 6
Last Quarter
Dec 13
New

Hourly Weather History & Observations

Time (CST) Temp. Windchill Dew Point Humidity Pressure Visibility Wind Dir Wind Speed Gust Speed Precip Events Conditions
12:15 AM 37.4 °F 32.1 °F 30.2 °F 75% 30.37 in 10.0 mi ESE 6.9 mph - N/A   Clear
12:35 AM 37.4 °F 32.1 °F 30.2 °F 75% 30.37 in 10.0 mi SE 6.9 mph - N/A   Clear
12:55 AM 37.4 °F 32.8 °F 30.2 °F 75% 30.37 in 10.0 mi SE 5.8 mph - N/A   Clear
1:15 AM 37.4 °F 31.4 °F 30.2 °F 75% 30.37 in 10.0 mi SE 8.1 mph - N/A   Clear
1:35 AM 37.4 °F 32.1 °F 30.2 °F 75% 30.36 in 10.0 mi ESE 6.9 mph - N/A   Clear
1:55 AM 37.4 °F 31.4 °F 30.2 °F 75% 30.36 in 10.0 mi SE 8.1 mph - N/A   Clear
2:15 AM 37.4 °F 32.1 °F 30.2 °F 75% 30.37 in 10.0 mi SE 6.9 mph - N/A   Clear
2:35 AM 37.4 °F 32.1 °F 30.2 °F 75% 30.37 in 7.0 mi SE 6.9 mph - N/A   Clear
2:55 AM 37.4 °F 32.1 °F 30.2 °F 75% 30.37 in 7.0 mi SE 6.9 mph - N/A   Clear
3:15 AM 37.4 °F 32.1 °F 30.2 °F 75% 30.36 in 7.0 mi SE 6.9 mph - N/A   Clear
3:35 AM 37.4 °F 32.8 °F 30.2 °F 75% 30.35 in 7.0 mi ESE 5.8 mph - N/A   Clear
3:55 AM 37.4 °F 32.1 °F 30.2 °F 75% 30.35 in 7.0 mi ESE 6.9 mph - N/A   Clear
4:15 AM 37.4 °F 32.1 °F 30.2 °F 75% 30.35 in 7.0 mi SE 6.9 mph - N/A   Clear
4:35 AM 37.4 °F 32.1 °F 30.2 °F 75% 30.34 in 7.0 mi ESE 6.9 mph - N/A   Clear
4:55 AM 37.4 °F 31.4 °F 30.2 °F 75% 30.35 in 7.0 mi SE 8.1 mph - N/A   Clear
5:15 AM 37.4 °F 30.8 °F 32.0 °F 81% 30.34 in 7.0 mi ESE 9.2 mph - N/A   Clear
5:35 AM 37.4 °F 31.4 °F 32.0 °F 81% 30.34 in 7.0 mi ESE 8.1 mph - N/A   Clear
5:55 AM 37.4 °F 30.8 °F 32.0 °F 81% 30.34 in 7.0 mi SE 9.2 mph - N/A   Clear
6:15 AM 37.4 °F 31.4 °F 32.0 °F 81% 30.34 in 7.0 mi SE 8.1 mph - N/A   Clear
6:35 AM 37.4 °F 30.8 °F 32.0 °F 81% 30.34 in 7.0 mi ESE 9.2 mph - N/A   Clear
6:55 AM 37.4 °F 31.4 °F 32.0 °F 81% 30.34 in 7.0 mi SE 8.1 mph - N/A   Clear
7:15 AM 37.4 °F 31.4 °F 32.0 °F 81% 30.34 in 7.0 mi SE 8.1 mph - N/A   Clear
7:35 AM 39.2 °F 33.0 °F 33.8 °F 81% 30.34 in 5.0 mi SE 9.2 mph - N/A   Haze
7:55 AM 39.2 °F 33.0 °F 32.0 °F 75% 30.34 in 5.0 mi SE 9.2 mph - N/A   Haze
8:15 AM 39.2 °F 33.6 °F 33.8 °F 81% 30.34 in 5.0 mi ESE 8.1 mph - N/A   Haze
8:35 AM 41.0 °F 36.4 °F 33.8 °F 76% 30.35 in 7.0 mi SE 6.9 mph - N/A   Clear
8:55 AM 42.8 °F 38.0 °F 33.8 °F 70% 30.34 in 7.0 mi SE 8.1 mph - N/A   Clear
9:15 AM 42.8 °F 38.0 °F 33.8 °F 70% 30.34 in 7.0 mi ESE 8.1 mph 16.1 mph N/A   Clear
9:35 AM 44.6 °F 40.2 °F 33.8 °F 66% 30.35 in 7.0 mi SE 8.1 mph - N/A   Clear
9:55 AM 46.4 °F 42.4 °F 35.6 °F 66% 30.34 in 7.0 mi SE 8.1 mph - N/A   Clear
10:15 AM 46.4 °F 43.5 °F 35.6 °F 66% 30.35 in 7.0 mi SE 5.8 mph - N/A   Clear
10:35 AM 48.2 °F - 35.6 °F 62% 30.34 in 7.0 mi SE 6.9 mph - N/A   Clear
10:55 AM 50.0 °F - 35.6 °F 58% 30.34 in 7.0 mi SE 5.8 mph - N/A   Clear
11:15 AM 51.8 °F - 37.4 °F 58% 30.32 in 10.0 mi SE 4.6 mph - N/A   Clear
11:35 AM 53.6 °F - 37.4 °F 54% 30.31 in 10.0 mi SSE 8.1 mph - N/A   Clear
11:55 AM 53.6 °F - 37.4 °F 54% 30.31 in 10.0 mi South 5.8 mph - N/A   Clear
12:15 PM 57.2 °F - 37.4 °F 48% 30.30 in 10.0 mi SSE 9.2 mph - N/A   Clear
12:35 PM 57.2 °F - 37.4 °F 48% 30.29 in 10.0 mi SSW 11.5 mph - N/A   Clear
12:55 PM 57.2 °F - 37.4 °F 48% 30.29 in 10.0 mi South 6.9 mph 10.4 mph N/A   Clear
1:15 PM 57.2 °F - 37.4 °F 48% 30.28 in 10.0 mi South 10.4 mph 16.1 mph N/A   Clear
1:35 PM 57.2 °F - 35.6 °F 44% 30.28 in 10.0 mi South 8.1 mph 18.4 mph N/A   Clear
1:55 PM 57.2 °F - 35.6 °F 44% 30.28 in 10.0 mi SSW 9.2 mph - N/A   Clear
2:15 PM 57.2 °F - 35.6 °F 44% 30.28 in 10.0 mi South 11.5 mph 18.4 mph N/A   Clear
2:35 PM 57.2 °F - 35.6 °F 44% 30.27 in 10.0 mi SSE 10.4 mph - N/A   Clear
2:55 PM 55.4 °F - 35.6 °F 47% 30.27 in 10.0 mi SSE 8.1 mph - N/A   Clear
3:15 PM 55.4 °F - 35.6 °F 47% 30.27 in 10.0 mi SSE 8.1 mph - N/A   Clear
3:35 PM 55.4 °F - 35.6 °F 47% 30.27 in 10.0 mi SSE 12.7 mph 16.1 mph N/A   Clear
3:55 PM 53.6 °F - 35.6 °F 51% 30.27 in 10.0 mi SSE 10.4 mph - N/A   Clear
4:15 PM 53.6 °F - 35.6 °F 51% 30.27 in 10.0 mi SE 6.9 mph - N/A   Clear
4:35 PM 51.8 °F - 37.4 °F 58% 30.27 in 10.0 mi SE 6.9 mph - N/A   Clear
4:55 PM 51.8 °F - 37.4 °F 58% 30.26 in 10.0 mi SE 8.1 mph - N/A   Clear
5:15 PM 51.8 °F - 35.6 °F 54% 30.26 in 10.0 mi SE 8.1 mph - N/A   Clear
5:35 PM 51.8 °F - 35.6 °F 54% 30.26 in 10.0 mi SSE 10.4 mph - N/A   Clear
5:55 PM 51.8 °F - 35.6 °F 54% 30.26 in 10.0 mi SSE 12.7 mph 17.3 mph N/A   Clear
6:15 PM 51.8 °F - 35.6 °F 54% 30.26 in 10.0 mi SSE 16.1 mph 20.7 mph N/A   Clear
6:35 PM 51.8 °F - 35.6 °F 54% 30.26 in 10.0 mi SSE 12.7 mph - N/A   Clear
6:55 PM 51.8 °F - 35.6 °F 54% 30.25 in 10.0 mi SSE 15.0 mph 20.7 mph N/A   Clear
7:15 PM 51.8 °F - 35.6 °F 54% 30.26 in 10.0 mi SE 13.8 mph 18.4 mph N/A   Mostly Cloudy
7:35 PM 50.0 °F - 35.6 °F 58% 30.26 in 10.0 mi SSE 11.5 mph 19.6 mph N/A   Mostly Cloudy
7:55 PM 50.0 °F - 35.6 °F 58% 30.26 in 10.0 mi SSE 10.4 mph 18.4 mph N/A   Scattered Clouds
8:15 PM 48.2 °F - 35.6 °F 62% 30.26 in 10.0 mi SSE 12.7 mph 18.4 mph N/A   Clear
8:55 PM 48.2 °F - 35.6 °F 62% 30.27 in 10.0 mi SSE 10.4 mph - N/A   Clear
9:15 PM 48.2 °F - 35.6 °F 62% 30.26 in 10.0 mi SSE 13.8 mph 18.4 mph N/A   Clear
9:35 PM 48.2 °F - 35.6 °F 62% 30.27 in 10.0 mi SSE 10.4 mph - N/A   Clear
9:55 PM 48.2 °F - 35.6 °F 62% 30.28 in 10.0 mi SSE 9.2 mph 16.1 mph N/A   Mostly Cloudy
10:15 PM 48.2 °F - 33.8 °F 58% 30.28 in 10.0 mi SSE 9.2 mph - N/A   Overcast
10:35 PM 48.2 °F - 33.8 °F 58% 30.28 in 10.0 mi SSE 8.1 mph - N/A   Overcast
10:55 PM 48.2 °F - 33.8 °F 58% 30.28 in 10.0 mi SE 6.9 mph - N/A   Overcast
11:15 PM 46.4 °F 42.4 °F 33.8 °F 62% 30.28 in 10.0 mi SE 8.1 mph - N/A   Mostly Cloudy
11:35 PM 46.4 °F 42.4 °F 33.8 °F 62% 30.28 in 10.0 mi SE 8.1 mph - N/A   Mostly Cloudy
11:55 PM 46.4 °F 41.9 °F 33.8 °F 62% 30.28 in 10.0 mi SE 9.2 mph - N/A   Mostly Cloudy